Bainbridge, GA

1:26 PM EDT on March 28, 2017 (GMT -0400)
Decatur County Industrial

Weather History for KBGE - August, 2014

Change the Weather History Date:

Monday, August 18, 2014

  Actual Average (KABY) Record (KABY)
Temperature  
Mean Temperature 86 °F -  
Max Temperature 95 °F 88 °F 103 °F (1954)
Min Temperature 77 °F 70 °F 63 °F (1983)
Cooling Degree Days 21    
Growing Degree Days 36 (Base 50)    
Moisture  
Dew Point 76 °F    
Average Humidity 86    
Maximum Humidity 100    
Minimum Humidity 53    
Precipitation  
Precipitation 0.00 in - - ()
Sea Level Pressure  
Sea Level Pressure 30.01 in    
Wind  
Wind Speed 3 mph (WSW)    
Max Wind Speed 24 mph    
Max Gust Speed 34 mph    
Visibility 10 miles    
Events Rain , Thunderstorm    
Averages and records for this station are not official NWS values.
T = Trace of Precipitation, MM = Missing Value Source: NWS Daily Summary

Daily Weather History Graph

Daily Weather History Graph

Search for Another Location

Airport or City:

Trip Planner

Search our weather history database for the weather conditions in past years. The results will help you decide how hot, cold, wet, or windy it might be!

Date:

Astronomy

Aug. 18, 2014 Rise Set
Actual Time 7:06 AM EDT 8:17 PM EDT
Civil Twilight 6:41 AM EDT 8:43 PM EDT
Nautical Twilight 6:11 AM EDT 9:13 PM EDT
Astronomical Twilight 5:40 AM EDT 9:44 PM EDT
Moon 1:17 AM EDT (8/18) 3:14 PM EDT (8/18)
Length of Visible Light 14h 01m
Length of Day
13h 11m
Last Quarter, 38% of the Moon is Illuminated
Aug 18
Last Quarter
Aug 25
New
Sep 2
First Quarter
Sep 8
Full
Sep 15
Last Quarter

Hourly Weather History & Observations

Time (EDT) Temp. Heat Index Dew Point Humidity Pressure Visibility Wind Dir Wind Speed Gust Speed Precip Events Conditions
12:15 AM 78.8 °F - 77.0 °F 94% 30.05 in 10.0 mi SW 3.5 mph - N/A   Clear
12:35 AM 78.8 °F - 77.0 °F 94% 30.05 in 10.0 mi SW 3.5 mph - N/A   Clear
12:55 AM 78.8 °F - 77.0 °F 94% 30.05 in 10.0 mi Calm Calm - N/A   Clear
1:15 AM 78.8 °F - 77.0 °F 94% 30.04 in 10.0 mi Calm Calm - N/A   Clear
1:35 AM 78.8 °F - 77.0 °F 94% 30.03 in 10.0 mi Calm Calm - N/A   Clear
1:55 AM 78.8 °F - 77.0 °F 94% 30.03 in 10.0 mi Calm Calm - N/A   Clear
2:15 AM 77.0 °F - 77.0 °F 100% 30.02 in 7.0 mi SSW 3.5 mph - N/A   Clear
2:35 AM 77.0 °F - 75.2 °F 94% 30.00 in 10.0 mi Calm Calm - N/A   Clear
2:55 AM 77.0 °F - 75.2 °F 94% 30.00 in 10.0 mi SW 3.5 mph - N/A   Clear
3:15 AM 77.0 °F - 73.4 °F 89% 30.00 in 10.0 mi Calm Calm - N/A   Clear
3:35 AM 77.0 °F - 73.4 °F 89% 30.01 in 10.0 mi Calm Calm - N/A   Clear
3:55 AM 77.0 °F - 73.4 °F 89% 30.01 in 10.0 mi Calm Calm - N/A   Clear
4:15 AM 77.0 °F - 73.4 °F 89% 30.00 in 10.0 mi SW 3.5 mph - N/A   Clear
4:35 AM 77.0 °F - 73.4 °F 89% 30.00 in 10.0 mi SW 3.5 mph - N/A   Clear
4:55 AM 77.0 °F - 73.4 °F 89% 30.00 in 10.0 mi SW 3.5 mph - N/A   Clear
5:15 AM 77.0 °F - 73.4 °F 89% 30.00 in 10.0 mi SW 3.5 mph - N/A   Clear
5:35 AM 77.0 °F - 73.4 °F 89% 30.01 in 10.0 mi Calm Calm - N/A   Clear
5:55 AM 77.0 °F - 73.4 °F 89% 30.01 in 10.0 mi Calm Calm - N/A   Clear
6:15 AM 77.0 °F - 73.4 °F 89% 30.01 in 10.0 mi Calm Calm - N/A   Clear
6:35 AM 77.0 °F - 73.4 °F 89% 30.02 in 10.0 mi Calm Calm - N/A   Clear
6:55 AM 77.0 °F - 73.4 °F 89% 30.03 in 10.0 mi Calm Calm - N/A   Clear
7:15 AM 77.0 °F - 73.4 °F 89% 30.03 in 10.0 mi Calm Calm - N/A   Clear
7:35 AM 77.0 °F - 73.4 °F 89% 30.03 in 10.0 mi Calm Calm - N/A   Clear
7:55 AM 78.8 °F - 77.0 °F 94% 30.03 in 10.0 mi Calm Calm - N/A   Clear
8:15 AM 78.8 °F - 77.0 °F 94% 30.04 in 10.0 mi WSW 3.5 mph - N/A   Clear
8:35 AM 80.6 °F 87.1 °F 77.0 °F 89% 30.04 in 10.0 mi WSW 5.8 mph - N/A   Clear
8:55 AM 80.6 °F 87.1 °F 77.0 °F 89% 30.04 in 10.0 mi West 8.1 mph - N/A   Clear
9:15 AM 84.2 °F 96.1 °F 78.8 °F 84% 30.05 in 10.0 mi West 8.1 mph - N/A   Scattered Clouds
9:35 AM 86.0 °F 99.3 °F 78.8 °F 79% 30.05 in 10.0 mi West 8.1 mph - N/A   Scattered Clouds
9:55 AM 86.0 °F 99.3 °F 78.8 °F 79% 30.05 in 10.0 mi West 8.1 mph - N/A   Mostly Cloudy
10:15 AM 87.8 °F 102.5 °F 78.8 °F 75% 30.05 in 10.0 mi West 11.5 mph - N/A   Mostly Cloudy
10:35 AM 89.6 °F 102.2 °F 77.0 °F 66% 30.05 in 10.0 mi WNW 11.5 mph 18.4 mph N/A   Mostly Cloudy
10:55 AM 91.4 °F 105.1 °F 77.0 °F 63% 30.05 in 10.0 mi West 11.5 mph - N/A   Scattered Clouds
11:15 AM 91.4 °F 107.2 °F 78.8 °F 66% 30.05 in 10.0 mi West 12.7 mph 18.4 mph N/A   Scattered Clouds
11:35 AM 93.2 °F 107.2 °F 77.0 °F 59% 30.04 in 10.0 mi WNW 10.4 mph - N/A   Scattered Clouds
11:55 AM 95.0 °F 109.7 °F 77.0 °F 56% 30.04 in 10.0 mi West 12.7 mph - N/A Thunderstorm Scattered Clouds
12:15 PM 95.0 °F 107.4 °F 75.2 °F 53% 30.03 in 10.0 mi West 9.2 mph 18.4 mph N/A Thunderstorm Clear
4:15 PM 91.4 °F 102.5 °F 75.2 °F 59% 29.98 in 10.0 mi WSW 24.2 mph 34.5 mph N/A Thunderstorm Thunderstorm
4:35 PM 78.8 °F - 73.4 °F 83% 29.98 in 10.0 mi WSW 8.1 mph - N/A Rain , Thunderstorm Light Thunderstorms and Rain
4:55 PM 78.8 °F - 75.2 °F 89% 29.96 in 10.0 mi WNW 5.8 mph - N/A Thunderstorm Unknown
5:15 PM 78.8 °F - 73.4 °F 83% 29.98 in 10.0 mi Calm Calm - N/A Thunderstorm Scattered Clouds
5:55 PM 78.8 °F - 75.2 °F 89% 29.98 in 10.0 mi Calm Calm - N/A   Clear
6:15 PM 78.8 °F - 75.2 °F 89% 29.96 in 10.0 mi SSW 4.6 mph - N/A   Clear
6:35 PM 78.8 °F - 73.4 °F 83% 29.97 in 10.0 mi SSW 4.6 mph - N/A   Clear
6:55 PM 78.8 °F - 73.4 °F 83% 29.98 in 10.0 mi WSW 4.6 mph - N/A   Clear
7:15 PM 78.8 °F - 73.4 °F 83% 29.98 in 10.0 mi West 4.6 mph - N/A   Clear
7:35 PM 78.8 °F - 73.4 °F 83% 29.98 in 10.0 mi WSW 4.6 mph - N/A   Clear
7:55 PM 78.8 °F - 73.4 °F 83% 29.98 in 10.0 mi West 4.6 mph - N/A   Clear
8:15 PM 78.8 °F - 75.2 °F 89% 29.98 in 10.0 mi Calm Calm - N/A   Clear
8:35 PM 78.8 °F - 77.0 °F 94% 29.97 in 10.0 mi Calm Calm - N/A   Clear
8:55 PM 78.8 °F - 77.0 °F 94% 29.96 in 10.0 mi SW 3.5 mph - N/A   Clear
9:15 PM 78.8 °F - 77.0 °F 94% 29.95 in 10.0 mi SW 4.6 mph - N/A   Clear
9:35 PM 78.8 °F - 77.0 °F 94% 29.96 in 10.0 mi WSW 4.6 mph - N/A   Clear
9:55 PM 78.8 °F - 77.0 °F 94% 29.97 in 10.0 mi West 4.6 mph - N/A   Clear
10:35 PM 78.8 °F - 77.0 °F 94% 29.98 in 10.0 mi SW 3.5 mph - N/A   Clear
10:55 PM 78.8 °F - 77.0 °F 94% 29.98 in 10.0 mi WSW 4.6 mph - N/A   Clear
11:15 PM 77.0 °F - 75.2 °F 94% 29.98 in 10.0 mi WSW 3.5 mph - N/A   Clear
11:35 PM 77.0 °F - 73.4 °F 89% 29.98 in 10.0 mi SW 3.5 mph - N/A   Clear
11:55 PM 77.0 °F - 77.0 °F 100% 29.98 in 10.0 mi SSW 3.5 mph - N/A   Clear